Location: ????????
(56.1167°N, 38.6333°E)
Time: 21:07:12
(UTC+00:00)

SMAP - Pass Details

Date: 18 November 2025
Orbit: 681 x 683 km, 98.1° (Epoch: 14 December)

Event Time Altitude Azimuth Distance (km) Brightness Sun altitude
Rises 14:57:56 0° 176° (S) 3,038 6.5 -14.2°
Reaches altitude 10° 15:00:12 10° 181° (S) 2,126 5.8 -14.6°
Maximum altitude 15:04:46 54° 259° (W) 834 3.9 -15.2°
Drops below altitude 10° 15:09:22 10° 337° (NNW) 2,141 5.8 -15.8°
Sets 15:11:40 0° 342° (NNW) 3,061 6.5 -16.1°
